Regional Weather Roundup
Issued by NWS Boston, MA

Current Version | Previous Version | Text Only | Print | Product List | Glossary On
Versions: 1 2 3 4 5 6 7 8 9 10 11 12 13 14 15 16 17 18 19 20 21 22 23 24 25 26 27 28 29 30 31 32 33 34 35 36 37 38 39 40 41 42 43 44 45 46 47
000
ASUS41 KBOX 262210
RWRBOX

REGIONAL WEATHER ROUNDUP
NATIONAL WEATHER SERVICE TAUNTON MA
500 PM EST FRI DEC 26 2014

NOTE:  "FAIR" INDICATES FEW OR NO CLOUDS BELOW 12,000 FEET WITH NO
SIGNIFICANT WEATHER AND/OR OBSTRUCTIONS TO VISIBILITY.  THE FOLLOWING
OBSERVATION LOCATIONS DO NOT REPORT PRESENT WEATHER...PROVINCETOWN...
SMITHFIELD...BLOCK ISLAND...KEENE...AND OXFORD.

MAZALL-262300-
EASTERN MASSACHUSETTS

CITY           SKY/WX    TMP DP  RH WIND       PRES   REMARKS
BOSTON         PTCLDY    48  30  49 W7        30.12S
BEVERLY        CLEAR     44  29  55 W6        30.10F
LAWRENCE       CLEAR     44  30  57 SW8       30.12S
BEDFORD        PTCLDY    42  28  57 W3        30.11R
BLUE HILL        N/A     42  28  57 W10       30.10S
NORWOOD        CLEAR     43  29  57 SW3       30.12S
MARSHFIELD     PTCLDY    43  32  65 CALM      30.14S
PLYMOUTH       CLEAR     39  31  72 SW3       30.12S
TAUNTON        CLEAR     38  31  76 CALM      30.13S
NEW BEDFORD    CLEAR     42  33  70 W3        30.12F
$$

MAZALL-262300-
CAPE COD AND THE ISLANDS

CITY           SKY/WX    TMP DP  RH WIND       PRES   REMARKS
FALMOUTH       CLEAR     43  32  65 W3        30.12F
HYANNIS        CLEAR     41  32  70 CALM      30.12R
CHATHAM        CLEAR     41  35  79 SW3       30.14R
PROVINCETOWN   CLEAR     43  36  75 SW6       30.13S
NANTUCKET      CLEAR     42  35  76 W6        30.14S
MARTHAS VNYRD  CLEAR     42  35  76 W5        30.13F
$$

MAZALL-262300-
CENTRAL AND WESTERN MASSACHUSETTS

CITY           SKY/WX    TMP DP  RH WIND       PRES   REMARKS
WORCESTER      CLEAR     39  27  62 W10       30.10S
FITCHBURG      CLEAR     43  27  53 W3        30.12S
ORANGE         CLEAR     41  27  57 W7        30.12F
SPRINGFIELD    CLEAR     43  27  52 W3        30.14R
WESTFIELD      CLEAR     43  27  53 CALM      30.15R
NORTH ADAMS    CLEAR     37  28  70 W5        30.14R
PITTSFIELD     CLEAR     35  27  72 SW3       30.11S
$$

RIZALL-262300-
RHODE ISLAND

CITY           SKY/WX    TMP DP  RH WIND       PRES   REMARKS
PROVIDENCE     PTCLDY    45  29  53 W7        30.15R
NEWPORT        CLEAR     44  31  60 W3        30.14S
BLOCK ISLAND   CLEAR     45  32  61 W10G17    30.15R
SMITHFIELD     CLEAR     39  25  56 W3        30.12R
WESTERLY       CLEAR     44  37  76 W9        30.16R
$$

CTZALL-262300-
CONNECTICUT

CITY           SKY/WX    TMP DP  RH WIND       PRES   REMARKS
BRADLEY INTL   PTCLDY    44  27  51 W6        30.15R
HARTFORD       CLEAR     47  28  47 SW8       30.16R
BRIDGEPORT     CLEAR     44  36  73 W5        30.18R
DANBURY        CLEAR     39  28  64 CALM      30.18R
GROTON         CLEAR     42  35  76 W10       30.16R
NEW HAVEN      PTCLDY    47  35  63 SW7       30.18R
CHESTER        FAIR      43  32  65 SW5       30.17R
MERIDEN        CLEAR     39  30  70 CALM      30.17R
WILLIMANTIC    CLEAR     44  29  55 CALM      30.15R
OXFORD         CLEAR     43  27  52 CALM      30.17R
$$

MEZ002-015-021-024-NHZ003-005-008-011-012-014-VTZ005-008-262300-
NORTHERN NEW ENGLAND

CITY           SKY/WX    TMP DP  RH WIND       PRES   REMARKS
PORTLAND ME    CLEAR     45  28  51 W7        30.06S
BANGOR ME      PTCLDY    41  26  55 W7        30.02R
CONCORD NH     CLEAR     41  27  57 NW7       30.09S
MANCHESTER NH  PTCLDY    44  28  53 SW6       30.08F
NASHUA NH      CLEAR     42  30  62 W3        30.11F
PORTSMOUTH NH  PTCLDY    42  29  60 W7        30.08S
JAFFREY NH     CLEAR     40  26  57 W7        30.10S
KEENE NH       CLEAR     41  27  56 S5        30.12R
BURLINGTON VT  PTCLDY    40  28  62 CALM      30.08F
MT. WASHINGTON FOG       18  18 100 NW59G66     N/A  VSB 1/16WCI  -7
$$

NYZ052-076-262300-
EASTERN NEW YORK

CITY           SKY/WX    TMP DP  RH WIND       PRES   REMARKS
ALBANY         PTCLDY    40  28  62 CALM      30.16S
NEW YORK CITY  PTCLDY    48  28  46 W6        30.19S
$$

ANZALL-262300-
MARINE OBSERVATIONS

STATION/POSITION TIME  TEMP    WIND        PRES    VSBY  WAVE
                       AIR SEA DIR/SP/G                  HT/PER
                 (UTC) (F)     (DEG/KT/KT) (MB)    (MI)  (FT/S)
BOSTON BUOY      2150   46 44  270/ 10/ 12 1019.8R         1/11
BUZZARDS BAY     2100          270/  7/  8 1021.4R
NANTUCKET SOUND  2150   44 45  230/  6/  6 1020.2F         1
MASS BAY-STELLWA 2104   45 44  260/ 12/ 14   N/A    1 7/8  1/ 3
ISLE OF SHOALS   2200   45     260/ 12/ 13 1018.3R
S OF BLOCK IS    2108      51                N/A           4/ 6
$$

......................KEY.........................
  SKY/WX - SKY CONDITION/PRESENT WEATHER
  TMP    - TEMPERATURE IN FAHRENHEIT
  DWPT   - DEWPOINT IN FAHRENHEIT
  RH     - RELATIVE HUMIDITY IN PERCENT
  WIND   - DIRECTION AND SPEED IN MPH
  PRES   - MEAN SEA LEVEL PRESSURE IN INCHES OF HG
  WCI    - WIND CHILL INDEX
  VSB    - VISIBILITY IN MILES
  HX     - HEAT INDEX
  TC     - TEMPERATURE IN CELSIUS
  VRB    - VARIABLE WIND DIRECTION
  N/A    - NOT AVAILABLE


USA.gov is the U.S. government's official web portal to all federal, state and local government web resources and services.